C/2017 E3 ( PanSTARRS )

Japanese version
Home page
Updated on April 13, 2018

---------------------------------------------------------------------

* Profile

Discovery Date March 7, 2017
Magnitude 19.2 mag
Discoverer Pan-STARRS 1 telescope (Haleakala)

* Pictures

* Orbital Elements

Epoch 2017 June 16.0 TT = JDT 2457920.5
T 2017 May 31.59436 TT                                  MPCW
q   5.9152729            (2000.0)            P               Q
z  -0.0008409      Peri.  333.66577     -0.77474859     -0.14229307
 +/-0.0000012      Node   220.75846     -0.26825932     -0.80832464
e   1.0049744      Incl.   70.66521     -0.57253958     +0.57128273
From 229 observations 2017 Mar. 7-2018 Mar. 18, mean residual 0".5.

* Magnitudes Graph

        m1 = 5.5 + 5 log d + 10.0 log r

---------------------------------------------------------------------

The orbital elements are published on M.P.E.C. 2018-F152.
The magnitudes graphs are made with Comet for Windows.

---------------------------------------------------------------------

Copyright(C) Seiichi Yoshida (comet@aerith.net). All rights reserved.